Tracking 29892 objects as of 21-Nov-2024
HD Live streaming from Space Station
objects crossing your sky now

SL-8 DEB

Track SL-8 DEB now!
10-day predictions


NORAD ID: 15490
Int'l Code: 1985-006C
Perigee: 693.1 km
Apogee: 701.4 km
Inclination: 74.0 °
Period: 98.6 minutes
Semi major axis: 7068 km
RCS: 0.0113 m2 (small)
Launch date: January 17, 1985
Source: Commonwealth of Independent States (former USSR) (CIS)
Launch site: PLESETSK MISSILE AND SPACE COMPLEX (PKMTR)

Note: This is SATELLITE DEBRIS
Your satellite tracking list
Your tracking list is empty




NASA's NSSDC Master Catalog

Two Line Element Set (TLE):
1 15490U 85006C   24326.06348144  .00004301  00000-0  88318-3 0  9994
2 15490  74.0326 354.1821 0005908 289.5750  70.4778 14.60945687 99747
Source of the keplerian elements: AFSPC